Главная страница
METAR-TAF:

METAR-TAF

Аэропорты :

William H. Morse State Airport

Bennington, Вермонт, США

широта: 42-53-24N, долгота: 073-14-47W, высота над уровнем моря: 252 м

Текущие метеонаблюдения

Эта сводка был подготовлена 1 час и 2 минут назад, в 08:54 UTC
Ветер 3 Узел от южный
Температура -8°C
Влажность 67%
Давление 1022 hPa
Видимость: 16.1 км
ясное небо

METAR: KDDH 260854Z AUTO 17003KT 10SM CLR M08/M13 A3017 RMK AO2 SLP225 T10781133 53003

Время: 05:56 (09:56 UTC)


TAF: отсутствует

Метеонаблюдения и прогнозы для более 4000 аэропортов (сводки METAR и TAF).

Имеющиеся станции представлены на карте желтыми и красными точками.

Чтобы увидеть название станции, наведите на нее мышь.

Затем щелкните, чтобы увидеть метеонаблюдения и метеопрогнозы.

Управление картой: чтобы увеличить масштаб, щелкните зеленые кнопки с черным крестиком; чтобы уменьшить масштаб, щелкните зеленую кнопку с тире; для просмотра соседних карт щелкайте зеленые стрелки.


METAR-TAF: